Location: Bonningues
(50.7927°N, 2.0150°E)
Time: 05:38:03
(UTC+00:00)

MetOp-B - Pass Details

Date: 08 August 2020
Orbit: 818 x 822 km, 98.7° (Epoch: 23 September)

Event Time Altitude Azimuth Distance (km) Brightness Sun altitude
Exits shadow 20:24:42 - 158° (SSE) 2,696 6.3 -8.8°
Reaches altitude 10° 20:25:24 10° 158° (SSE) 2,416 6.1 -8.9°
Maximum altitude 20:30:45 80° 73° (ENE) 842 4.2 -9.5°
Drops below altitude 10° 20:36:09 10° 347° (NNW) 2,433 7.5 -10.2°
Sets 20:38:30 0° 346° (NNW) 3,369 8.3 -10.5°
